Location: Praha
(50.0830°N, 14.4670°E)
Time: 16:48:53
(UTC+02:00)

ISS - Pass Details

Date: 23 May 2020
Orbit: 417 x 420 km, 51.6° (Epoch: 25 May)

Event Time Altitude Azimuth Distance (km) Brightness Sun altitude
Rises 22:18:25 0° 276° (W) 2,365 0.8 -10.7°
Reaches altitude 10° 22:20:32 10° 280° (W) 1,501 -0.2 -10.9°
Maximum altitude 22:23:53 65° 2° (N) 466 -3.4 -11.3°
Drops below altitude 10° 22:27:14 10° 86° (E) 1,502 -1.3 -11.6°
Enters shadow 22:28:05 - 88° (E) 1,847 -0.8 -11.7°
